TimeAKDT,TemperatureF,Dew PointF,Humidity,Sea Level PressureIn,VisibilityMPH,Wind Direction,Wind SpeedMPH,Gust SpeedMPH,PrecipitationIn,Events,Conditions,WindDirDegrees,DateUTC
12:53 AM,27.0,24.1,89,29.97,10.0,Calm,Calm,-,N/A,Snow,Light Snow,0,2013-10-24 08:53:00
1:53 AM,28.0,24.1,85,29.99,8.0,ENE,3.5,-,N/A,Snow,Light Snow,70,2013-10-24 09:53:00
2:53 AM,28.9,24.1,82,29.99,8.0,ENE,4.6,-,N/A,Snow,Light Snow,60,2013-10-24 10:53:00
3:53 AM,28.0,24.1,85,29.99,8.0,ENE,5.8,-,N/A,Snow,Light Snow,70,2013-10-24 11:53:00
4:53 AM,28.0,24.1,85,29.98,8.0,ENE,5.8,-,N/A,Snow,Light Snow,60,2013-10-24 12:53:00
5:53 AM,27.0,23.0,85,29.98,9.0,ENE,9.2,-,N/A,Snow,Light Snow,60,2013-10-24 13:53:00
6:53 AM,26.1,21.9,84,29.97,10.0,East,10.4,-,N/A,,Overcast,80,2013-10-24 14:53:00
7:53 AM,25.0,19.9,81,29.97,10.0,NE,9.2,-,N/A,,Mostly Cloudy,50,2013-10-24 15:53:00
8:53 AM,21.9,18.0,85,29.96,10.0,NE,4.6,-,N/A,,Scattered Clouds,50,2013-10-24 16:53:00
9:53 AM,21.9,19.0,89,29.94,10.0,East,4.6,-,N/A,,Mostly Cloudy,80,2013-10-24 17:53:00
10:53 AM,24.1,18.0,77,29.91,10.0,ENE,8.1,-,N/A,,Mostly Cloudy,60,2013-10-24 18:53:00
11:53 AM,25.0,19.0,78,29.90,10.0,NNE,4.6,-,N/A,,Mostly Cloudy,20,2013-10-24 19:53:00
12:53 PM,27.0,19.9,75,29.88,10.0,NNE,6.9,-,N/A,,Mostly Cloudy,20,2013-10-24 20:53:00
1:53 PM,28.0,21.0,75,29.82,10.0,NE,3.5,-,N/A,,Mostly Cloudy,40,2013-10-24 21:53:00
2:53 PM,30.0,21.0,69,29.80,10.0,NNE,4.6,-,N/A,,Mostly Cloudy,20,2013-10-24 22:53:00
3:53 PM,30.9,21.9,69,29.78,10.0,NNE,5.8,-,N/A,,Overcast,20,2013-10-24 23:53:00
4:53 PM,30.9,21.9,69,29.76,10.0,NNE,6.9,-,N/A,,Overcast,20,2013-10-25 00:53:00
5:53 PM,33.1,21.9,64,29.73,10.0,NNE,5.8,-,N/A,,Mostly Cloudy,30,2013-10-25 01:53:00
6:53 PM,33.1,21.0,61,29.71,10.0,NE,5.8,-,N/A,,Mostly Cloudy,40,2013-10-25 02:53:00
7:53 PM,34.0,19.9,56,29.71,10.0,NE,6.9,-,N/A,,Mostly Cloudy,40,2013-10-25 03:53:00
8:53 PM,32.0,19.0,59,29.71,10.0,North,6.9,-,N/A,,Mostly Cloudy,10,2013-10-25 04:53:00
9:53 PM,37.0,19.9,50,29.70,10.0,North,8.1,-,N/A,,Mostly Cloudy,10,2013-10-25 05:53:00
10:53 PM,32.0,21.0,64,29.70,10.0,North,6.9,-,N/A,,Mostly Cloudy,10,2013-10-25 06:53:00
11:53 PM,30.9,21.0,67,29.71,10.0,NNE,4.6,-,N/A,,Mostly Cloudy,20,2013-10-25 07:53:00